sat.trackr.live / text

‹ back to catalog

STARLINK-35201

NORAD 65664 · 2025-211N

PAYLOAD ACTIVE UNKNOWN

§ Identity

Operator
Country
US
Launch date
2025-09-19
Launch site
AFWTR
Launch vehicle
Mass (kg)
RCS (m²)

Purposes: comms

External: N2YO · Heavens-Above · Gunter

§ Orbital elements

Epoch: 2026-09-20T13:29:12.708096Z

Period
93.91 min
Inclination
97.2823°
Eccentricity
0.0001057
Mean motion
15.33456035 rev/d
Perigee alt
464.8 km
Apogee alt
466.2 km
Semi-major
6,843.6 km
B*
4.3392e-4
RAAN
303.8021°
Arg perigee
117.7200°
Mean anomaly
242.4150°
Rev number
5,653

§ Raw data

STARLINK-352011 65664U 25211N   26263.56195264  .00013964  00000+0  43392-3 0  99912 65664  97.2823 303.8021 0001057 117.7200 242.4150 15.33456035 56530

JSON: /api/v1/satellites/65664 · /tle

For live sub-satellite position, see the globe view (requires WebGL).

§ Visibility from observer

Set your observer location to see the next 7 days of passes ≥ 10°. The values pass through the URL so the page stays shareable.

No JS? Fill the form by hand. The geolocation button needs JavaScript.